| time (UTC) | temp F | wind direction | speed MPH | gust MPH | rain 1hr in | rain 24hr in | rain mn in | humidity % | barometer mb |
| 20260903140004 | 73 | 291 | 0.0 | 0.0 | 0.00 | 0.00 | 0.04 | 100 | 1011.1 |
| 20260903135505 | 73 | 291 | 0.0 | 0.0 | 0.00 | 0.00 | 0.04 | 100 | 1011.1 |
| 20260903135059 | 73 | 291 | 0.0 | 0.0 | 0.00 | 0.00 | 0.04 | 100 | 1011.1 |
| 20260903134631 | 72 | 291 | 0.0 | 0.0 | 0.00 | 0.00 | 0.04 | 100 | 1011.1 |
| 20260903134106 | 72 | 291 | 0.0 | 0.0 | 0.00 | 0.00 | 0.04 | 100 | 1010.9 |
| 20260903133502 | 72 | 291 | 0.0 | 0.0 | 0.00 | 0.00 | 0.04 | 100 | 1010.9 |
| 20260903133101 | 72 | 291 | 0.0 | 0.0 | 0.00 | 0.00 | 0.04 | 100 | 1010.9 |
| 20260903132559 | 72 | 291 | 0.0 | 0.0 | 0.00 | 0.00 | 0.04 | 100 | 1010.6 |
| 20260903132102 | 72 | 291 | 0.0 | 0.0 | 0.00 | 0.00 | 0.04 | 100 | 1010.6 |
| 20260903131610 | 72 | 291 | 0.0 | 0.0 | 0.00 | 0.00 | 0.04 | 100 | 1010.6 |
| 20260903131003 | 71 | 291 | 0.0 | 0.0 | 0.00 | 0.00 | 0.04 | 100 | 1010.6 |
| 20260903130555 | 71 | 291 | 0.0 | 0.0 | 0.00 | 0.00 | 0.04 | 100 | 1010.6 |
| 20260903130104 | 71 | 291 | 0.0 | 0.0 | 0.00 | 0.00 | 0.04 | 100 | 1010.6 |
| 20260903125602 | 71 | 291 | 0.0 | 0.0 | 0.00 | 0.00 | 0.04 | 100 | 1011.2 |
| 20260903125104 | 71 | 289 | 0.0 | 0.0 | 0.00 | 0.00 | 0.04 | 100 | 1011.2 |
| 20260903124503 | 71 | 289 | 0.0 | 0.0 | 0.00 | 0.00 | 0.04 | 100 | 1011.2 |
| 20260903124055 | 71 | 289 | 0.0 | 0.0 | 0.00 | 0.00 | 0.04 | 100 | 1011.1 |
| 20260903123601 | 71 | 289 | 0.0 | 0.0 | 0.00 | 0.00 | 0.04 | 100 | 1011.1 |
| 20260903123102 | 70 | 289 | 0.0 | 0.0 | 0.00 | 0.00 | 0.04 | 100 | 1011.1 |
| 20260903122605 | 70 | 289 | 0.0 | 0.0 | 0.00 | 0.00 | 0.04 | 100 | 1011.0 |
| 20260903122052 | 70 | 289 | 0.0 | 0.0 | 0.00 | 0.00 | 0.04 | 100 | 1011.0 |
| 20260903121556 | 70 | 289 | 0.0 | 0.0 | 0.00 | 0.00 | 0.04 | 100 | 1011.0 |
| 20260903121102 | 70 | 291 | 0.0 | 0.0 | 0.00 | 0.00 | 0.04 | 100 | 1011.6 |
| 20260903120557 | 70 | 289 | 0.0 | 0.0 | 0.00 | 0.00 | 0.04 | 100 | 1011.6 |
| 20260903120118 | 70 | 289 | 0.0 | 0.0 | 0.00 | 0.00 | 0.04 | 100 | 1011.6 |
| 20260903115605 | 70 | 291 | 0.0 | 0.0 | 0.00 | 0.00 | 0.04 | 100 | 1011.9 |
| 20260903115003 | 70 | 291 | 0.0 | 0.0 | 0.00 | 0.00 | 0.03 | 100 | 1011.9 |
| 20260903114505 | 70 | 291 | 0.0 | 0.0 | 0.00 | 0.00 | 0.03 | 100 | 1011.9 |
| 20260903114007 | 70 | 291 | 0.0 | 0.0 | 0.00 | 0.00 | 0.03 | 100 | 1012.3 |
| 20260903113600 | 70 | 291 | 0.0 | 0.0 | 0.00 | 0.00 | 0.03 | 100 | 1012.3 |
| 20260903113103 | 70 | 291 | 0.0 | 0.0 | 0.00 | 0.00 | 0.03 | 100 | 1012.3 |
| 20260903112606 | 70 | 291 | 0.0 | 0.0 | 0.00 | 0.00 | 0.03 | 100 | 1012.7 |
| 20260903112003 | 70 | 291 | 0.0 | 0.0 | 0.00 | 0.00 | 0.03 | 100 | 1012.7 |
| 20260903111506 | 70 | 291 | 0.0 | 0.0 | 0.00 | 0.00 | 0.03 | 100 | 1012.7 |
| 20260903111009 | 70 | 291 | 0.0 | 0.0 | 0.00 | 0.00 | 0.03 | 100 | 1012.8 |
| 20260903110602 | 70 | 291 | 0.0 | 0.0 | 0.00 | 0.00 | 0.03 | 100 | 1012.8 |
| 20260903110107 | 70 | 291 | 0.0 | 0.0 | 0.00 | 0.00 | 0.03 | 100 | 1012.8 |
| 20260903105504 | 70 | 291 | 0.0 | 0.0 | 0.00 | 0.00 | 0.03 | 100 | 1012.6 |
| 20260903105007 | 70 | 291 | 0.0 | 0.0 | 0.00 | 0.00 | 0.03 | 100 | 1012.6 |
| 20260903104617 | 70 | 291 | 0.0 | 0.0 | 0.00 | 0.00 | 0.03 | 100 | 1012.6 |
| 20260903104102 | 70 | 291 | 0.0 | 0.0 | 0.00 | 0.00 | 0.03 | 100 | 1012.2 |
| 20260903103605 | 70 | 291 | 0.0 | 0.0 | 0.00 | 0.00 | 0.03 | 100 | 1012.2 |
| 20260903103002 | 70 | 291 | 0.0 | 0.0 | 0.00 | 0.00 | 0.03 | 100 | 1012.2 |
| 20260903102507 | 70 | 291 | 0.0 | 0.0 | 0.00 | 0.00 | 0.03 | 100 | 1012.3 |
| 20260903102100 | 70 | 291 | 0.0 | 0.0 | 0.00 | 0.00 | 0.03 | 100 | 1012.3 |
| 20260903101605 | 70 | 291 | 0.0 | 0.0 | 0.00 | 0.00 | 0.03 | 100 | 1012.3 |
| 20260903101108 | 70 | 291 | 0.0 | 0.0 | 0.00 | 0.00 | 0.03 | 100 | 1012.5 |
| 20260903100503 | 70 | 291 | 0.0 | 0.0 | 0.00 | 0.00 | 0.03 | 100 | 1012.5 |
| 20260903100057 | 70 | 291 | 0.0 | 0.0 | 0.00 | 0.00 | 0.03 | 100 | 1012.5 |
| 20260903095600 | 70 | 291 | 0.0 | 0.0 | 0.00 | 0.00 | 0.03 | 100 | 1012.8 |
| 20260903095103 | 70 | 291 | 0.0 | 0.0 | 0.00 | 0.00 | 0.02 | 100 | 1012.8 |
| 20260903094629 | 70 | 291 | 0.0 | 0.0 | 0.00 | 0.00 | 0.02 | 100 | 1012.8 |
| 20260903094054 | 70 | 291 | 0.0 | 0.0 | 0.00 | 0.00 | 0.02 | 100 | 1012.7 |
| 20260903093558 | 70 | 291 | 0.0 | 0.0 | 0.00 | 0.00 | 0.02 | 100 | 1012.7 |
| 20260903093101 | 70 | 291 | 0.0 | 0.0 | 0.00 | 0.00 | 0.02 | 100 | 1012.7 |
| 20260903092502 | 70 | 291 | 0.0 | 0.0 | 0.00 | 0.00 | 0.02 | 100 | 1012.8 |
| 20260903092059 | 70 | 291 | 0.0 | 0.0 | 0.00 | 0.00 | 0.02 | 100 | 1012.8 |
| 20260903091501 | 70 | 291 | 0.0 | 0.0 | 0.00 | 0.00 | 0.02 | 100 | 1012.8 |
| 20260903091007 | 70 | 291 | 0.0 | 0.0 | 0.00 | 0.00 | 0.02 | 100 | 1013.0 |
| 20260903090600 | 70 | 291 | 0.0 | 0.0 | 0.00 | 0.00 | 0.02 | 100 | 1013.0 |
| 20260903090105 | 70 | 291 | 0.0 | 0.0 | 0.00 | 0.00 | 0.02 | 100 | 1013.0 |
| 20260903085502 | 70 | 291 | 0.0 | 0.0 | 0.00 | 0.00 | 0.02 | 100 | 1013.5 |
| 20260903085004 | 70 | 291 | 0.0 | 0.0 | 0.00 | 0.00 | 0.02 | 100 | 1013.5 |
| 20260903084522 | 70 | 291 | 0.0 | 0.0 | 0.00 | 0.00 | 0.02 | 100 | 1013.5 |
| 20260903084104 | 70 | 291 | 0.0 | 0.0 | 0.00 | 0.00 | 0.02 | 100 | 1013.5 |
| 20260903083605 | 70 | 291 | 0.0 | 0.0 | 0.00 | 0.00 | 0.02 | 100 | 1013.5 |
| 20260903083006 | 70 | 236 | 0.0 | 0.0 | 0.00 | 0.00 | 0.02 | 100 | 1013.5 |
| 20260903082559 | 70 | 233 | 0.0 | 0.0 | 0.00 | 0.00 | 0.02 | 100 | 1011.9 |
| 20260903082101 | 70 | 112 | 0.0 | 0.0 | 0.00 | 0.00 | 0.02 | 100 | 1011.9 |
| 20260903081605 | 70 | 112 | 0.0 | 0.0 | 0.00 | 0.00 | 0.02 | 100 | 1011.9 |
| 20260903081004 | 70 | 112 | 0.0 | 0.0 | 0.00 | 0.00 | 0.02 | 100 | 1012.2 |
| 20260903080555 | 70 | 112 | 0.0 | 0.0 | 0.00 | 0.00 | 0.02 | 100 | 1012.2 |
| 20260903080059 | 70 | 112 | 0.0 | 0.0 | 0.00 | 0.00 | 0.02 | 100 | 1012.2 |
| 20260903075603 | 70 | 112 | 0.0 | 0.0 | 0.00 | 0.00 | 0.02 | 100 | 1012.3 |
| 20260903075104 | 70 | 112 | 0.0 | 0.0 | 0.00 | 0.00 | 0.02 | 100 | 1012.3 |
| 20260903074559 | 70 | 112 | 0.0 | 0.0 | 0.00 | 0.00 | 0.02 | 100 | 1012.3 |
| 20260903074058 | 70 | 112 | 0.0 | 0.0 | 0.00 | 0.00 | 0.02 | 100 | 1012.2 |
| 20260903073604 | 70 | 112 | 0.0 | 0.0 | 0.00 | 0.00 | 0.02 | 100 | 1012.2 |
| 20260903073105 | 70 | 112 | 0.0 | 0.0 | 0.00 | 0.00 | 0.01 | 100 | 1012.2 |
| 20260903072501 | 70 | 112 | 0.0 | 0.0 | 0.00 | 0.00 | 0.01 | 100 | 1012.0 |
| 20260903072056 | 70 | 112 | 0.0 | 0.0 | 0.00 | 0.00 | 0.01 | 100 | 1012.0 |
| 20260903071609 | 70 | 112 | 0.0 | 0.0 | 0.00 | 0.00 | 0.01 | 100 | 1012.0 |
| 20260903071101 | 70 | 112 | 0.0 | 0.0 | 0.00 | 0.00 | 0.01 | 100 | 1012.2 |
| 20260903070604 | 70 | 112 | 0.0 | 0.0 | 0.00 | 0.00 | 0.01 | 100 | 1012.2 |
| 20260903070055 | 70 | 112 | 0.0 | 0.0 | 0.00 | 0.00 | 0.01 | 100 | 1012.2 |
| 20260903065559 | 70 | 112 | 0.0 | 0.0 | 0.00 | 0.00 | 0.01 | 100 | 1012.4 |
| 20260903065105 | 70 | 112 | 0.0 | 0.0 | 0.00 | 0.00 | 0.01 | 100 | 1012.4 |
| 20260903064503 | 70 | 112 | 0.0 | 0.0 | 0.00 | 0.00 | 0.01 | 100 | 1012.4 |
| 20260903064058 | 70 | 112 | 0.0 | 0.0 | 0.00 | 0.00 | 0.01 | 100 | 1012.6 |
| 20260903063600 | 70 | 112 | 0.0 | 0.0 | 0.00 | 0.00 | 0.01 | 100 | 1012.6 |
| 20260903063113 | 70 | 112 | 0.0 | 0.0 | 0.00 | 0.00 | 0.01 | 100 | 1012.6 |
| 20260903062502 | 70 | 112 | 0.0 | 0.0 | 0.00 | 0.00 | 0.01 | 100 | 1012.1 |
| 20260903062059 | 70 | 112 | 0.0 | 0.0 | 0.00 | 0.00 | 0.01 | 100 | 1012.1 |
| 20260903061601 | 70 | 112 | 0.0 | 0.0 | 0.00 | 0.00 | 0.01 | 100 | 1012.1 |
| 20260903061101 | 70 | 112 | 0.0 | 0.0 | 0.00 | 0.00 | 0.01 | 100 | 1014.3 |
| 20260903060605 | 71 | 112 | 0.0 | 0.0 | 0.00 | 0.00 | 0.01 | 100 | 1014.3 |
| 20260903060053 | 71 | 100 | 0.0 | 0.0 | 0.00 | 0.00 | 0.01 | 100 | 1014.3 |
| 20260903055545 | 71 | 316 | 0.0 | 0.0 | 0.00 | 0.00 | 0.01 | 100 | 1013.0 |
| 20260903055046 | 71 | 250 | 0.0 | 0.0 | 0.00 | 0.00 | 0.01 | 100 | 1013.0 |
| 20260903054550 | 71 | 119 | 0.0 | 0.0 | 0.00 | 0.00 | 0.01 | 100 | 1013.0 |
| 20260903054053 | 71 | 117 | 0.0 | 0.0 | 0.00 | 0.00 | 0.01 | 100 | 1012.8 |
| 20260903053547 | 71 | 119 | 0.0 | 0.0 | 0.00 | 0.00 | 0.01 | 100 | 1012.8 |
| 20260903053109 | 71 | 117 | 0.0 | 0.0 | 0.00 | 0.00 | 0.00 | 100 | 1012.8 |
| 20260903052553 | 71 | 257 | 0.0 | 0.0 | 0.00 | 0.00 | 0.00 | 100 | 1012.5 |
| 20260903052059 | 71 | 233 | 0.0 | 0.0 | 0.00 | 0.00 | 0.00 | 100 | 1012.5 |
| 20260903051604 | 71 | 233 | 0.0 | 0.0 | 0.00 | 0.00 | 0.00 | 100 | 1012.5 |
| 20260903051003 | 71 | 233 | 0.0 | 0.0 | 0.00 | 0.00 | 0.00 | 100 | 1012.5 |
| 20260903050555 | 71 | 233 | 0.0 | 0.0 | 0.00 | 0.00 | 0.00 | 100 | 1012.5 |
| 20260903050104 | 71 | 233 | 0.0 | 0.0 | 0.00 | 0.00 | 0.00 | 100 | 1012.5 |
| 20260903045601 | 71 | 233 | 0.0 | 0.0 | 0.00 | 0.00 | 0.00 | 100 | 1012.5 |
| 20260903045106 | 71 | 233 | 0.0 | 0.0 | 0.00 | 0.00 | 0.00 | 100 | 1012.5 |
| 20260903044501 | 71 | 233 | 0.0 | 0.0 | 0.00 | 0.00 | 0.00 | 100 | 1012.5 |
| 20260903044005 | 71 | 233 | 0.0 | 0.0 | 0.00 | 0.00 | 0.00 | 100 | 1012.6 |
| 20260903043510 | 71 | 233 | 0.0 | 0.0 | 0.00 | 0.00 | 0.00 | 100 | 1012.6 |
| 20260903043027 | 71 | 233 | 0.0 | 0.0 | 0.00 | 0.00 | 0.00 | 100 | 1012.6 |
| 20260903042514 | 71 | 233 | 0.0 | 0.0 | 0.00 | 0.00 | 0.00 | 100 | 1012.7 |
| 20260903042017 | 71 | 233 | 0.0 | 0.0 | 0.00 | 0.00 | 0.00 | 100 | 1012.7 |
| 20260903041529 | 71 | 233 | 0.0 | 0.0 | 0.00 | 0.00 | 0.00 | 100 | 1012.7 |
| 20260903041028 | 71 | 233 | 0.0 | 0.0 | 0.00 | 0.00 | 0.00 | 100 | 1013.2 |
| 20260903040531 | 71 | 233 | 0.0 | 0.0 | 0.00 | 0.00 | 0.00 | 100 | 1013.2 |
| 20260903040037 | 71 | 233 | 0.0 | 0.0 | 0.00 | 0.00 | 0.00 | 100 | 1013.2 |
| 20260903035538 | 71 | 233 | 0.0 | 0.0 | 0.00 | 0.00 | 0.09 | 100 | 1013.6 |
| 20260903035046 | 71 | 233 | 0.0 | 0.0 | 0.00 | 0.00 | 0.09 | 100 | 1013.6 |
| 20260903034557 | 71 | 233 | 0.0 | 0.0 | 0.00 | 0.00 | 0.09 | 100 | 1013.6 |
| 20260903034100 | 71 | 233 | 0.0 | 0.0 | 0.00 | 0.00 | 0.09 | 100 | 1013.5 |
| 20260903033602 | 71 | 233 | 0.0 | 0.0 | 0.00 | 0.00 | 0.09 | 100 | 1013.5 |
| 20260903033105 | 71 | 233 | 0.0 | 0.0 | 0.00 | 0.00 | 0.09 | 100 | 1013.5 |
| 20260903032554 | 71 | 233 | 0.0 | 0.0 | 0.00 | 0.00 | 0.09 | 100 | 1013.4 |
| 20260903032040 | 71 | 233 | 0.0 | 0.0 | 0.00 | 0.00 | 0.09 | 100 | 1013.4 |
| 20260903031558 | 71 | 233 | 0.0 | 0.0 | 0.00 | 0.00 | 0.09 | 100 | 1013.4 |
| 20260903031050 | 71 | 233 | 0.0 | 0.0 | 0.00 | 0.00 | 0.09 | 100 | 1013.5 |
| 20260903030557 | 71 | 233 | 0.0 | 0.0 | 0.00 | 0.00 | 0.09 | 100 | 1013.5 |
| 20260903030003 | 71 | 233 | 0.0 | 0.0 | 0.00 | 0.00 | 0.09 | 100 | 1013.5 |
| 20260903025508 | 71 | 233 | 0.0 | 0.0 | 0.00 | 0.00 | 0.09 | 100 | 1013.6 |
| 20260903025059 | 71 | 233 | 0.0 | 0.0 | 0.00 | 0.00 | 0.09 | 100 | 1013.6 |
| 20260903024611 | 71 | 233 | 0.0 | 0.0 | 0.00 | 0.00 | 0.08 | 100 | 1013.6 |
| 20260903024105 | 71 | 233 | 0.0 | 0.0 | 0.00 | 0.00 | 0.08 | 100 | 1013.1 |
| 20260903023503 | 71 | 233 | 0.0 | 0.0 | 0.00 | 0.00 | 0.08 | 100 | 1013.1 |
| 20260903023059 | 71 | 233 | 0.0 | 0.0 | 0.00 | 0.00 | 0.08 | 100 | 1013.1 |
| 20260903022545 | 71 | 233 | 0.0 | 0.0 | 0.00 | 0.00 | 0.08 | 100 | 1012.9 |
| 20260903022054 | 71 | 233 | 0.0 | 0.0 | 0.00 | 0.00 | 0.08 | 100 | 1012.9 |
| 20260903021555 | 71 | 233 | 0.0 | 0.0 | 0.00 | 0.00 | 0.08 | 100 | 1012.9 |
| 20260903021101 | 71 | 233 | 0.0 | 0.0 | 0.00 | 0.00 | 0.08 | 100 | 1012.9 |
| 20260903020604 | 71 | 233 | 0.0 | 0.0 | 0.00 | 0.00 | 0.08 | 100 | 1012.9 |
| 20260903020003 | 72 | 233 | 0.0 | 0.0 | 0.00 | 0.00 | 0.08 | 100 | 1012.9 |
| 20260903015506 | 72 | 233 | 0.0 | 0.0 | 0.00 | 0.00 | 0.08 | 100 | 1013.3 |
| 20260903015100 | 72 | 233 | 0.0 | 0.0 | 0.00 | 0.00 | 0.08 | 100 | 1013.3 |
| 20260903014606 | 72 | 233 | 0.0 | 0.0 | 0.00 | 0.00 | 0.08 | 100 | 1013.3 |
| 20260903014002 | 72 | 233 | 0.0 | 0.0 | 0.00 | 0.00 | 0.08 | 100 | 1013.0 |
| 20260903013505 | 72 | 233 | 0.0 | 0.0 | 0.00 | 0.00 | 0.08 | 100 | 1013.0 |
| 20260903013059 | 72 | 233 | 0.0 | 0.0 | 0.00 | 0.00 | 0.08 | 100 | 1013.0 |
| 20260903012605 | 72 | 233 | 0.0 | 0.0 | 0.00 | 0.00 | 0.08 | 100 | 1012.9 |
| 20260903012106 | 72 | 233 | 0.0 | 0.0 | 0.00 | 0.00 | 0.08 | 100 | 1012.9 |
| 20260903011503 | 72 | 233 | 0.0 | 0.0 | 0.00 | 0.00 | 0.08 | 100 | 1012.9 |
| 20260903011056 | 72 | 233 | 0.0 | 0.0 | 0.00 | 0.00 | 0.08 | 100 | 1013.1 |
| 20260903010600 | 72 | 233 | 0.0 | 0.0 | 0.00 | 0.00 | 0.08 | 100 | 1013.1 |
| 20260903010104 | 72 | 233 | 0.0 | 0.0 | 0.00 | 0.00 | 0.08 | 100 | 1013.1 |
| 20260903005557 | 72 | 233 | 0.0 | 0.0 | 0.00 | 0.00 | 0.08 | 100 | 1012.9 |
| 20260903005058 | 72 | 233 | 0.0 | 0.0 | 0.00 | 0.00 | 0.08 | 100 | 1012.9 |
| 20260903004602 | 72 | 233 | 0.0 | 0.0 | 0.00 | 0.00 | 0.08 | 100 | 1012.9 |
| 20260903004003 | 72 | 233 | 0.0 | 0.0 | 0.00 | 0.00 | 0.07 | 100 | 1013.1 |
| 20260903003557 | 72 | 233 | 0.0 | 0.0 | 0.00 | 0.00 | 0.07 | 100 | 1013.1 |
| 20260903003105 | 72 | 233 | 0.0 | 0.0 | 0.00 | 0.00 | 0.07 | 100 | 1013.1 |
| 20260903002607 | 72 | 233 | 0.0 | 0.0 | 0.00 | 0.00 | 0.07 | 100 | 1013.1 |
| 20260903002056 | 72 | 233 | 0.0 | 0.0 | 0.00 | 0.00 | 0.07 | 100 | 1013.1 |
| 20260903001608 | 72 | 233 | 0.0 | 0.0 | 0.00 | 0.00 | 0.07 | 100 | 1013.1 |
| 20260903001105 | 72 | 233 | 0.0 | 0.0 | 0.00 | 0.00 | 0.07 | 100 | 1012.8 |
| 20260903000502 | 72 | 233 | 0.0 | 0.0 | 0.00 | 0.00 | 0.07 | 100 | 1012.8 |
| 20260903000006 | 72 | 233 | 0.0 | 0.0 | 0.00 | 0.00 | 0.07 | 100 | 1012.8 |
| 20260902235558 | 72 | 233 | 0.0 | 0.0 | 0.00 | 0.00 | 0.07 | 100 | 1012.7 |
| 20260902235104 | 72 | 233 | 0.0 | 0.0 | 0.00 | 0.00 | 0.07 | 100 | 1012.7 |
| 20260902234604 | 72 | 233 | 0.0 | 0.0 | 0.00 | 0.00 | 0.07 | 100 | 1012.7 |
| 20260902234001 | 72 | 233 | 0.0 | 0.0 | 0.00 | 0.00 | 0.07 | 100 | 1012.7 |
| 20260902233504 | 72 | 233 | 0.0 | 0.0 | 0.00 | 0.00 | 0.07 | 100 | 1012.7 |
| 20260902233007 | 72 | 233 | 0.0 | 0.0 | 0.00 | 0.00 | 0.07 | 100 | 1012.7 |
| 20260902232511 | 72 | 233 | 0.0 | 0.0 | 0.00 | 0.00 | 0.07 | 100 | 1012.9 |
| 20260902232106 | 72 | 233 | 0.0 | 0.0 | 0.00 | 0.00 | 0.07 | 100 | 1012.9 |
| 20260902231606 | 72 | 233 | 0.0 | 0.0 | 0.00 | 0.00 | 0.07 | 100 | 1012.9 |
| 20260902231004 | 73 | 233 | 0.0 | 0.0 | 0.00 | 0.00 | 0.07 | 100 | 1012.9 |
| 20260902230507 | 73 | 233 | 0.0 | 0.0 | 0.00 | 0.00 | 0.07 | 100 | 1012.9 |
| 20260902230010 | 73 | 233 | 0.0 | 0.0 | 0.00 | 0.00 | 0.07 | 100 | 1012.9 |
| 20260902225605 | 73 | 233 | 0.0 | 0.0 | 0.00 | 0.00 | 0.07 | 100 | 1012.8 |
| 20260902225107 | 73 | 233 | 0.0 | 0.0 | 0.00 | 0.00 | 0.07 | 100 | 1012.8 |
| 20260902224503 | 73 | 233 | 0.0 | 0.0 | 0.00 | 0.00 | 0.07 | 100 | 1012.8 |
| 20260902224007 | 73 | 233 | 0.0 | 0.0 | 0.00 | 0.00 | 0.07 | 100 | 1013.0 |
| 20260902223509 | 73 | 233 | 0.0 | 0.0 | 0.00 | 0.00 | 0.07 | 100 | 1013.0 |
| 20260902223103 | 73 | 233 | 0.0 | 0.0 | 0.00 | 0.00 | 0.07 | 100 | 1013.0 |
| 20260902222552 | 73 | 233 | 0.0 | 0.0 | 0.00 | 0.00 | 0.07 | 100 | 1013.3 |
| 20260902222054 | 73 | 233 | 0.0 | 0.0 | 0.00 | 0.00 | 0.07 | 100 | 1013.3 |
| 20260902221607 | 73 | 233 | 0.0 | 0.0 | 0.00 | 0.00 | 0.07 | 100 | 1013.3 |
| 20260902221108 | 73 | 233 | 0.0 | 0.0 | 0.00 | 0.00 | 0.07 | 100 | 1013.4 |
| 20260902220503 | 73 | 233 | 0.0 | 0.0 | 0.00 | 0.00 | 0.07 | 100 | 1013.4 |
| 20260902220006 | 73 | 233 | 0.0 | 0.0 | 0.00 | 0.00 | 0.07 | 100 | 1013.4 |
| 20260902215600 | 73 | 233 | 0.0 | 0.0 | 0.00 | 0.00 | 0.07 | 100 | 1013.1 |
| 20260902215047 | 73 | 233 | 0.0 | 0.0 | 0.00 | 0.00 | 0.07 | 100 | 1013.1 |
| 20260902214553 | 73 | 233 | 0.0 | 0.0 | 0.00 | 0.00 | 0.07 | 100 | 1013.1 |
| 20260902214055 | 73 | 233 | 0.0 | 0.0 | 0.00 | 0.00 | 0.07 | 100 | 1012.8 |
| 20260902213557 | 73 | 233 | 0.0 | 0.0 | 0.00 | 0.00 | 0.07 | 100 | 1012.8 |
| 20260902213047 | 73 | 233 | 0.0 | 0.0 | 0.00 | 0.00 | 0.06 | 100 | 1012.8 |
| 20260902212551 | 73 | 233 | 0.0 | 0.0 | 0.00 | 0.00 | 0.06 | 100 | 1013.1 |
| 20260902212058 | 73 | 233 | 0.0 | 0.0 | 0.00 | 0.00 | 0.06 | 100 | 1013.1 |
| 20260902211503 | 73 | 233 | 0.0 | 0.0 | 0.00 | 0.00 | 0.06 | 100 | 1013.1 |
| 20260902211005 | 73 | 233 | 0.0 | 0.0 | 0.00 | 0.00 | 0.06 | 100 | 1013.1 |
| 20260902210508 | 73 | 233 | 0.0 | 0.0 | 0.00 | 0.00 | 0.06 | 100 | 1013.1 |
| 20260902210029 | 73 | 233 | 0.0 | 0.0 | 0.00 | 0.00 | 0.06 | 100 | 1013.1 |
| 20260902205604 | 73 | 233 | 0.0 | 0.0 | 0.00 | 0.00 | 0.06 | 100 | 1013.4 |
| 20260902205001 | 73 | 233 | 0.0 | 0.0 | 0.00 | 0.00 | 0.06 | 100 | 1013.4 |
| 20260902204509 | 73 | 233 | 0.0 | 0.0 | 0.00 | 0.00 | 0.06 | 100 | 1013.4 |
| 20260902204007 | 73 | 233 | 0.0 | 0.0 | 0.00 | 0.00 | 0.06 | 100 | 1013.3 |
| 20260902203601 | 73 | 233 | 0.0 | 0.0 | 0.00 | 0.00 | 0.06 | 100 | 1013.3 |
| 20260902203104 | 73 | 233 | 0.0 | 0.0 | 0.00 | 0.00 | 0.06 | 100 | 1013.3 |
| 20260902202502 | 73 | 233 | 0.0 | 0.0 | 0.00 | 0.00 | 0.06 | 100 | 1013.0 |
| 20260902202058 | 72 | 233 | 0.0 | 0.0 | 0.00 | 0.00 | 0.06 | 100 | 1013.0 |
| 20260902201500 | 72 | 233 | 0.0 | 0.0 | 0.00 | 0.00 | 0.06 | 100 | 1013.0 |
| 20260902201006 | 72 | 233 | 0.0 | 0.0 | 0.00 | 0.00 | 0.06 | 100 | 1012.9 |
| 20260902200600 | 72 | 233 | 0.0 | 0.0 | 0.00 | 0.00 | 0.06 | 100 | 1012.9 |
| 20260902200104 | 72 | 233 | 0.0 | 0.0 | 0.00 | 0.00 | 0.06 | 100 | 1012.9 |
| 20260902195501 | 72 | 233 | 0.0 | 0.0 | 0.00 | 0.00 | 0.06 | 100 | 1013.2 |
| 20260902195003 | 72 | 233 | 0.0 | 0.0 | 0.00 | 0.00 | 0.06 | 100 | 1013.2 |
| 20260902194506 | 72 | 233 | 0.0 | 0.0 | 0.00 | 0.00 | 0.06 | 100 | 1013.2 |
| 20260902194100 | 72 | 233 | 0.0 | 0.0 | 0.00 | 0.00 | 0.06 | 100 | 1013.1 |
| 20260902193603 | 72 | 233 | 0.0 | 0.0 | 0.00 | 0.00 | 0.06 | 100 | 1013.1 |
| 20260902193000 | 72 | 233 | 0.0 | 0.0 | 0.00 | 0.00 | 0.05 | 100 | 1013.1 |
| 20260902192503 | 72 | 233 | 0.0 | 0.0 | 0.00 | 0.00 | 0.05 | 100 | 1013.3 |
| 20260902192057 | 72 | 233 | 0.0 | 0.0 | 0.00 | 0.00 | 0.05 | 100 | 1013.3 |
| 20260902191604 | 72 | 233 | 0.0 | 0.0 | 0.00 | 0.00 | 0.05 | 100 | 1013.3 |
| 20260902191103 | 71 | 233 | 0.0 | 0.0 | 0.00 | 0.00 | 0.05 | 100 | 1013.3 |
| 20260902190607 | 72 | 233 | 0.0 | 0.0 | 0.00 | 0.00 | 0.05 | 100 | 1013.3 |
| 20260902190004 | 72 | 233 | 0.0 | 0.0 | 0.00 | 0.00 | 0.05 | 100 | 1013.3 |
| 20260902185556 | 71 | 233 | 0.0 | 0.0 | 0.00 | 0.00 | 0.05 | 100 | 1013.4 |
| 20260902185045 | 71 | 233 | 0.0 | 0.0 | 0.00 | 0.00 | 0.05 | 100 | 1013.4 |
| 20260902184548 | 71 | 233 | 0.0 | 0.0 | 0.00 | 0.00 | 0.05 | 100 | 1013.4 |
| 20260902184052 | 71 | 233 | 0.0 | 0.0 | 0.00 | 0.00 | 0.05 | 100 | 1013.4 |
| 20260902183600 | 71 | 233 | 0.0 | 0.0 | 0.00 | 0.00 | 0.05 | 100 | 1013.4 |
| 20260902183103 | 71 | 233 | 0.0 | 0.0 | 0.00 | 0.00 | 0.05 | 100 | 1013.4 |
| 20260902182505 | 71 | 230 | 0.0 | 0.0 | 0.00 | 0.00 | 0.05 | 100 | 1013.8 |
| 20260902182058 | 71 | 230 | 0.0 | 0.0 | 0.00 | 0.00 | 0.05 | 100 | 1013.8 |
| 20260902181609 | 71 | 234 | 0.0 | 0.0 | 0.00 | 0.00 | 0.05 | 100 | 1013.8 |
| 20260902181104 | 71 | 234 | 0.0 | 0.0 | 0.00 | 0.00 | 0.05 | 100 | 1014.2 |
| 20260902180502 | 71 | 234 | 0.0 | 0.0 | 0.00 | 0.00 | 0.05 | 100 | 1014.2 |
| 20260902180006 | 71 | 234 | 0.0 | 0.0 | 0.00 | 0.00 | 0.05 | 100 | 1014.2 |
| 20260902175557 | 71 | 234 | 0.0 | 0.0 | 0.00 | 0.00 | 0.05 | 100 | 1016.1 |
| 20260902175100 | 71 | 234 | 0.0 | 0.0 | 0.00 | 0.00 | 0.05 | 100 | 1016.1 |
| 20260902174603 | 71 | 234 | 0.0 | 0.0 | 0.00 | 0.00 | 0.05 | 100 | 1016.1 |
| 20260902174001 | 71 | 232 | 0.0 | 0.0 | 0.00 | 0.00 | 0.05 | 100 | 1015.4 |
| 20260902173555 | 71 | 216 | 0.0 | 0.0 | 0.00 | 0.00 | 0.05 | 100 | 1015.4 |
| 20260902173058 | 72 | 216 | 0.0 | 0.0 | 0.00 | 0.00 | 0.05 | 100 | 1015.4 |
| 20260902172608 | 72 | 216 | 0.0 | 0.0 | 0.00 | 0.00 | 0.05 | 100 | 1015.2 |
| 20260902172053 | 72 | 216 | 0.0 | 0.0 | 0.00 | 0.00 | 0.05 | 100 | 1015.2 |
| 20260902171601 | 72 | 216 | 0.0 | 0.0 | 0.00 | 0.00 | 0.05 | 100 | 1015.2 |
| 20260902171106 | 72 | 216 | 0.0 | 0.0 | 0.00 | 0.00 | 0.05 | 100 | 1015.3 |
| 20260902170501 | 72 | 216 | 0.0 | 0.0 | 0.00 | 0.00 | 0.05 | 100 | 1015.3 |
| 20260902170007 | 72 | 216 | 0.0 | 0.0 | 0.00 | 0.00 | 0.05 | 100 | 1015.3 |
| 20260902165507 | 72 | 216 | 0.0 | 0.0 | 0.00 | 0.00 | 0.05 | 100 | 1015.1 |
| 20260902165012 | 72 | 216 | 0.0 | 0.0 | 0.00 | 0.00 | 0.05 | 100 | 1015.1 |
| 20260902164606 | 72 | 216 | 0.0 | 0.0 | 0.00 | 0.00 | 0.05 | 100 | 1015.1 |
| 20260902164001 | 72 | 216 | 0.0 | 0.0 | 0.00 | 0.00 | 0.05 | 100 | 1014.7 |
| 20260902163504 | 72 | 215 | 0.0 | 0.0 | 0.00 | 0.00 | 0.05 | 100 | 1014.7 |
| 20260902163008 | 72 | 215 | 0.0 | 0.0 | 0.00 | 0.00 | 0.05 | 100 | 1014.7 |
| 20260902162511 | 72 | 215 | 0.0 | 0.0 | 0.00 | 0.00 | 0.04 | 100 | 1014.8 |
| 20260902162105 | 71 | 215 | 0.0 | 0.0 | 0.00 | 0.00 | 0.04 | 100 | 1014.8 |
| 20260902161554 | 71 | 215 | 0.0 | 0.0 | 0.00 | 0.00 | 0.04 | 100 | 1014.8 |
| 20260902161100 | 71 | 215 | 0.0 | 0.0 | 0.00 | 0.00 | 0.04 | 100 | 1014.8 |
| 20260902160604 | 71 | 215 | 0.0 | 0.0 | 0.00 | 0.00 | 0.04 | 100 | 1014.8 |
| 20260902160054 | 71 | 215 | 0.0 | 0.0 | 0.00 | 0.00 | 0.04 | 100 | 1014.8 |
| 20260902155555 | 71 | 215 | 0.0 | 0.0 | 0.00 | 0.00 | 0.04 | 100 | 1014.8 |
| 20260902155058 | 71 | 215 | 0.0 | 0.0 | 0.00 | 0.00 | 0.04 | 100 | 1014.8 |
| 20260902154555 | 71 | 215 | 0.0 | 0.0 | 0.00 | 0.00 | 0.04 | 100 | 1014.8 |
| 20260902154105 | 71 | 215 | 0.0 | 0.0 | 0.00 | 0.00 | 0.04 | 100 | 1014.6 |
| 20260902153557 | 71 | 215 | 0.0 | 0.0 | 0.00 | 0.00 | 0.04 | 100 | 1014.6 |
| 20260902153101 | 71 | 215 | 0.0 | 0.0 | 0.00 | 0.00 | 0.04 | 100 | 1014.6 |
| 20260902152603 | 71 | 215 | 0.0 | 0.0 | 0.00 | 0.00 | 0.04 | 100 | 1014.9 |
| 20260902152107 | 71 | 215 | 0.0 | 0.0 | 0.00 | 0.00 | 0.04 | 100 | 1014.9 |
| 20260902151559 | 71 | 215 | 0.0 | 0.0 | 0.00 | 0.00 | 0.04 | 100 | 1014.9 |
| 20260902151104 | 70 | 215 | 0.0 | 0.0 | 0.00 | 0.00 | 0.04 | 100 | 1015.1 |
| 20260902150604 | 70 | 215 | 0.0 | 0.0 | 0.00 | 0.00 | 0.04 | 100 | 1015.1 |
| 20260902150010 | 71 | 215 | 0.0 | 0.0 | 0.00 | 0.00 | 0.04 | 100 | 1015.1 |
| 20260902145601 | 71 | 215 | 0.0 | 0.0 | 0.00 | 0.00 | 0.04 | 100 | 1015.1 |
| 20260902145105 | 70 | 215 | 0.0 | 0.0 | 0.00 | 0.00 | 0.04 | 100 | 1015.1 |
| 20260902144506 | 70 | 215 | 0.0 | 0.0 | 0.00 | 0.00 | 0.04 | 100 | 1015.1 |
| 20260902144005 | 70 | 215 | 0.0 | 0.0 | 0.00 | 0.00 | 0.04 | 100 | 1015.1 |
| 20260902143559 | 70 | 215 | 0.0 | 0.0 | 0.00 | 0.00 | 0.04 | 100 | 1015.1 |
| 20260902143052 | 70 | 215 | 0.0 | 0.0 | 0.00 | 0.00 | 0.04 | 100 | 1015.1 |
| 20260902142550 | 70 | 215 | 0.0 | 0.0 | 0.00 | 0.00 | 0.04 | 100 | 1014.6 |
| 20260902142056 | 70 | 215 | 0.0 | 0.0 | 0.00 | 0.00 | 0.03 | 100 | 1014.6 |
| 20260902141600 | 70 | 124 | 0.0 | 0.0 | 0.00 | 0.00 | 0.03 | 100 | 1014.6 |
| 20260902141002 | 70 | 124 | 0.0 | 0.0 | 0.00 | 0.00 | 0.03 | 100 | 1014.7 |
| 20260902140505 | 70 | 124 | 0.0 | 0.0 | 0.00 | 0.00 | 0.03 | 100 | 1014.7 |